Home   Weather   Utrecht   Past weeks

Flag for Netherlands Past Weather in Utrecht, Netherlands — Yesterday and Last 2 Weeks

Now
46 °F

Passing clouds.


Feels Like: 41 °F
Forecast: 43 / 50 °F
Wind: 12 mph from Southwest

Location: Amsterdam Schiphol Airport

Current Time: Dec 8, 2016 at 7:14:00 pm

Latest Report: Dec 8, 2016 at 6:25 pm


Visibility: N/A

Pressure: 30.24 "Hg

Humidity: 87%

Dew Point: 43 °F

Location of UtrechtLocation

Past Weather in Utrecht — Graph

°F

Utrecht Temperature Yesterday

Maximum temperature yesterday: 48 °F (at 1:55 pm)
Minimum temperature yesterday: 37 °F (at 12:25 am)
Average temperature yesterday: 43 °F

High & Low Weather Summary for the Past Weeks

 TemperatureHumidityPressure
High50 °F (Nov 27, 1:25 pm)100% (Nov 26, 6:25 am)30.60 "Hg (Nov 26, 6:25 am)
Low23 °F (Nov 29, 8:55 am)53% (Nov 28, 12:55 pm)30.09 "Hg (Nov 23, 5:25 pm)
Average39 °F84%30.31 "Hg
* Reported Nov 23 5:25 pm — Dec 8 5:55 pm, Utrecht, Weather by CustomWeather, © 2016

Note: Actual official high and low records may vary slightly from our data, if they occured in-between our weather recording intervals... More about our weather records

Advertising

Utrecht Weather History for the Previous 24 Hours

Scroll right to see more
 ConditionsComfort  
Time TempWeatherWind HumidityBarometerVisibility
5:55 pm
Thu, Dec 8
45 °FSprinkles. Passing clouds.10 mph93%30.24 "Hg4 mi
5:25 pm46 °FSprinkles. Passing clouds.12 mph82%30.24 "Hg4 mi
4:55 pm46 °FSprinkles. Passing clouds.13 mph82%30.24 "Hg5 mi
4:25 pm46 °FSunny.13 mph76%30.24 "Hg10 mi
3:55 pm48 °FSunny.14 mph71%30.24 "Hg10 mi
3:25 pm48 °FSunny.13 mph71%30.24 "Hg10 mi
2:55 pm46 °FSunny.13 mph71%30.24 "Hg10 mi
2:25 pm46 °FSunny.13 mph71%30.27 "Hg10 mi
1:55 pm46 °FSunny.16 mph71%30.27 "Hg10 mi
1:25 pm46 °FSunny.14 mph71%30.27 "Hg10 mi
12:25 pm48 °FSunny.14 mph71%30.27 "Hg10 mi
11:55 am48 °FSunny.14 mph71%30.27 "Hg10 mi
11:25 am46 °FSunny.15 mph76%30.30 "Hg10 mi
10:55 am46 °FSunny.15 mph76%30.30 "Hg10 mi
10:25 am46 °FSunny.14 mph76%30.30 "Hg10 mi
9:55 am45 °FSunny.15 mph76%30.30 "Hg10 mi
9:25 am45 °FSunny.12 mph76%30.30 "Hg10 mi
8:55 am45 °FSunny.12 mph76%30.33 "Hg10 mi
8:25 am45 °FClear.14 mph76%30.33 "Hg10 mi
7:55 am45 °FClear.13 mph76%30.33 "Hg10 mi
7:25 am45 °FClear.12 mph76%30.33 "Hg10 mi
6:55 am43 °FClear.10 mph81%30.33 "Hg10 mi
6:25 am43 °FClear.10 mph81%30.33 "Hg10 mi
5:55 am43 °FClear.13 mph81%30.33 "Hg10 mi
5:25 am43 °FClear.13 mph81%30.33 "Hg10 mi
4:55 am43 °FClear.12 mph81%30.33 "Hg10 mi
4:25 am43 °FClear.10 mph81%30.33 "Hg10 mi
3:55 am43 °FClear.10 mph81%30.33 "Hg10 mi
3:25 am43 °FClear.10 mph81%30.33 "Hg10 mi
2:25 am43 °FClear.12 mph81%30.33 "Hg10 mi
1:55 am43 °FClear.15 mph81%30.33 "Hg10 mi
1:25 am43 °FClear.14 mph87%30.33 "Hg10 mi
12:55 am45 °FClear.14 mph81%30.33 "Hg10 mi
12:25 am45 °FClear.15 mph81%30.33 "Hg10 mi
11:55 pm
Wed, Dec 7
45 °FClear.14 mph81%30.36 "Hg10 mi
11:25 pm45 °FClear.15 mph81%30.33 "Hg10 mi
10:55 pm45 °FClear.16 mph81%30.33 "Hg10 mi
10:25 pm45 °FClear.15 mph87%30.33 "Hg10 mi
9:55 pm45 °FClear.14 mph87%30.33 "Hg10 mi
9:25 pm45 °FClear.15 mph87%30.33 "Hg10 mi
8:55 pm45 °FClear.14 mph87%30.33 "Hg10 mi
8:25 pm45 °FClear.13 mph87%30.33 "Hg10 mi
7:55 pm45 °FClear.10 mph87%30.36 "Hg10 mi
7:25 pm45 °FClear.12 mph87%30.33 "Hg10 mi
Weather by CustomWeather, © 2016

See weather overviewHow to use our weather pages